Flag for U.S.A. Weather past 2 weeks in Shreveport, Louisiana, U.S.A.

Now
74 °F

Mostly cloudy.


Feels Like: 73 °F
Forecast: 69 / 86 °F
Wind: 5 mph from Southeast

Location: Shreveport Regional Airport

Current Time: May 28, 2015 at 3:43:48 AM

Latest Report: May 28, 2015 at 2:56 AM


Visibility: 10 mi

Pressure: 30.05 "Hg

Humidity: 88%

Dew point: 70 °F

Location of ShreveportLocation

Historic Weather in Shreveport — Graph

°F

Shreveport temperature yesterday

Maximum temperature yesterday: 87 °F (at 4:56 PM)
Minimum temperature yesterday: 66 °F (at 5:56 AM)
Average temperature yesterday: 76 °F

Past Weeks' High & Low Weather Summary

 TemperatureHumidityPressure
High88 °F (May 20, 4:56 PM)100% (May 18, 12:59 PM)30.22 "Hg (May 18, 12:59 PM)
Low55 °F (May 22, 4:56 AM)51% (May 14, 3:56 PM)29.85 "Hg (May 16, 6:56 PM)
Average74 °F81%30.03 "Hg
* Reported May 13 1:56 AM — May 28 1:56 AM, Shreveport, Weather by CustomWeather, © 2015

Note: Actual official high and low records may vary slightly from our data, if they occured in-between our weather recording intervals... More about our weather records

Advertising

Shreveport weather history for previous 24 hours

 ConditionsComfort  
Time TempWeatherWind HumidityBarometerVisibility
1:56 AM
Thu, May 28
73 °FMostly cloudy.No wind90%30.06 "Hg10 mi
12:56 AM74 °FPartly cloudy.No wind88%30.06 "Hg10 mi
11:56 PM
Wed, May 27
74 °FPassing clouds.5 mph88%30.07 "Hg10 mi
10:56 PM75 °FPassing clouds.3 mph85%30.06 "Hg10 mi
9:56 PM76 °FPassing clouds.3 mph85%30.05 "Hg10 mi
8:56 PM78 °FBroken clouds.6 mph82%30.04 "Hg10 mi
7:56 PM80 °FScattered clouds.6 mph74%30.02 "Hg10 mi
6:56 PM84 °FPartly sunny.5 mph63%30.01 "Hg10 mi
5:56 PM86 °FPartly sunny.5 mph57%30.02 "Hg10 mi
4:56 PM87 °FScattered clouds.5 mph57%30.03 "Hg10 mi
3:56 PM86 °FScattered clouds.No wind55%30.03 "Hg10 mi
2:56 PM84 °FScattered clouds.8 mph59%30.05 "Hg10 mi
1:56 PM82 °FBroken clouds.7 mph63%30.06 "Hg10 mi
12:56 PM80 °FBroken clouds.6 mph62%30.07 "Hg10 mi
11:56 AM79 °FPartly sunny.5 mph67%30.10 "Hg10 mi
10:56 AM75 °FMore clouds than sun.6 mph74%30.11 "Hg10 mi
9:56 AM71 °FMore clouds than sun.6 mph87%30.08 "Hg10 mi
8:56 AM69 °FMore clouds than sun.5 mph93%30.05 "Hg10 mi
7:56 AM67 °FMostly cloudy.5 mph93%30.06 "Hg10 mi
6:56 AM66 °FClear.6 mph93%30.02 "Hg10 mi
5:56 AM66 °FLight rain. Passing clouds.5 mph90%29.98 "Hg10 mi
4:56 AM67 °FThunderstorms. Fog.13 mph90%30.08 "Hg4 mi
3:56 AM68 °FThunderstorms. Fog.13 mph87%30.05 "Hg4 mi
Weather by CustomWeather, © 2015

See weather overviewHow to use our weather pages